Location: Borotice
(49.7353°N, 14.2802°E)
Time: 22:14:56
(UTC+00:00)

Daily predictions for brighter satellites

Satellite Brightness Start Highest point End
(mag) Time Altitude Azimuth Time Altitude Azimuth Time Altitude Azimuth
Cosmos 1607 3.9 15:32:32 10° NW 15:38:47 75° NE 15:45:04 10° SE
MOS 1 Rocket 4.5 15:35:13 10° ESE 15:39:16 25° ENE 15:43:29 10° N
Cosmos 1356 Rocket 3.7 15:38:14 10° SSW 15:42:17 71° WNW 15:46:23 10° N
Cosmos 1900 4.5 15:37:34 10° NNW 15:42:33 54° NE 15:47:25 10° SE
BREEZE-M DEB (TANK) 2.8 15:40:04 10° W 15:42:36 86° S 15:49:11 10° E
BREEZE M DEB (TANK) 4.3 15:24:36 10° WNW 15:42:43 76° SSW 15:47:07 10° ESE
ARIANE 5 R/B 3.0 15:40:44 10° SE 15:45:20 36° ENE 15:50:02 10° N
Cosmos 2084 Rocket 3.3 15:43:51 10° NW 15:48:03 69° NE 15:52:15 10° SE
NOSS 3-2 (A) 3.2 15:43:12 10° SW 15:48:16 87° NW 15:54:28 10° NE
Cosmos 1825 Rocket 4.5 15:44:43 10° NNE 15:48:23 26° ENE 15:52:01 10° SE
Intercosmos 24 3.6 15:44:46 10° N 15:48:37 83° E 15:52:10 10° SSE
Cosmos 1782 2.6 15:45:34 10° S 15:49:05 58° E 15:52:38 10° NNE
NOSS 3-2 (C) 3.6 15:45:15 10° SSW 15:49:59 44° ESE 15:55:36 10° NE
Cosmos 1656 3.7 15:44:42 10° SSW 15:50:19 77° ESE 15:56:01 10° NNE
SL-08 ROCKET BODY 4.4 15:45:06 10° N 15:51:04 74° E 15:57:06 10° SSE
Cosmos 1758 Rocket 3.4 15:47:31 10° N 15:51:52 79° E 15:56:08 10° SSE
Cosmos 2208 Rocket 4.2 15:48:47 10° NNW 15:53:58 79° WSW 15:59:09 10° SSE
Gbstr 26 Del rocket 4.2 15:50:48 10° SSW 15:54:18 26° SE 15:57:31 10° E
Cosmos 2098 Rocket 3.2 15:50:18 10° S 15:54:26 58° E 15:59:19 10° NNE
NOSS 2-2 (E) 2.6 15:52:28 10° SW 15:55:47 88° SE 15:58:41 11° NE
UNK 4.2 15:52:36 10° NNE 15:56:56 40° E 16:01:13 10° SSE
Cosmos 724 4.4 15:51:34 10° NW 15:57:40 85° SW 16:03:34 10° SE
Meteor 1-20 Rocket 4.2 15:53:13 10° N 15:58:37 58° ENE 16:03:59 10° SSE
CZ-4C R/B 2.9 15:53:45 10° NW 16:00:34 83° NE 16:09:08 10° SE
Cosmos 2266 Rocket 4.0 15:55:32 10° N 16:01:37 57° ENE 16:07:34 10° SSE
SPOT 1/Viking Rocket 4.4 15:57:55 10° ESE 16:02:13 27° ENE 16:06:32 10° N
Cosmos 405 Rocket 3.7 16:00:10 10° NNW 16:03:16 42° W 16:06:19 10° SSW
CBERS-1 4.2 15:59:27 10° SSE 16:04:34 81° WSW 16:09:43 10° NNW
SMAP 3.0 16:01:23 10° SSE 16:05:59 64° ENE 16:10:37 10° N
Cosmos 1076 Rocket 4.5 16:03:13 10° NNE 16:06:51 26° ENE 16:10:27 10° SE
Cosmos 783 Rocket 4.5 16:03:02 10° NNW 16:08:21 69° ENE 16:13:36 10° SSE
IRS-P3 4.5 16:04:01 10° SE 16:08:58 42° ENE 16:13:58 10° N
Cosmos 2297 Rocket 2.5 16:03:58 10° NNW 16:09:39 73° WSW 16:15:17 10° SSE
Landsat 7 3.8 16:06:18 10° SSE 16:10:49 55° ENE 16:15:23 10° N
COSMO-SKYMED 1 4.4 16:12:53 12° E 16:12:53 12° E 16:14:01 10° ESE
[s.n.66845] 3.9 16:12:22 10° NNE 16:12:44 11° NNE 16:12:44 11° NNE
Cosmos 1626 Rocket 4.4 16:09:52 10° NNW 16:14:06 53° W 16:18:16 10° S
[s.n.66847] 3.9 16:12:48 10° NNE 16:13:11 11° NNE 16:13:11 11° NNE
[s.n.66846] 3.9 16:13:13 10° NNE 16:13:36 11° NNE 16:13:36 11° NNE
Meteor 1-28 Rocket 2.9 16:11:22 10° NNE 16:14:44 84° WNW 16:18:03 10° SSW
[s.n.66843] 3.9 16:13:44 10° NNE 16:14:08 11° NNE 16:14:08 11° NNE
[s.n.66844] 3.9 16:14:09 10° NNE 16:14:35 12° NNE 16:14:35 12° NNE
[s.n.66842] 3.9 16:14:40 10° NNE 16:15:06 12° NNE 16:15:06 12° NNE
[s.n.66841] 3.9 16:15:07 10° NNE 16:15:32 12° NNE 16:15:32 12° NNE
[s.n.66840] 3.9 16:15:36 10° NNE 16:16:03 12° NNE 16:16:03 12° NNE
NOSS 2-2 (C) 4.4 16:14:48 10° W 16:17:26 25° NW 16:19:48 11° NNE
[s.n.66838] 3.9 16:16:04 10° N 16:16:31 12° NNE 16:16:31 12° NNE
[s.n.66839] 3.9 16:16:32 10° N 16:17:01 12° NNE 16:17:01 12° NNE
[s.n.66837] 3.9 16:16:59 10° N 16:17:28 12° NNE 16:17:28 12° NNE
[s.n.66836] 3.9 16:17:28 10° N 16:17:57 12° NNE 16:17:57 12° NNE
[s.n.66835] 3.9 16:17:58 10° N 16:18:27 12° NNE 16:18:27 12° NNE
[s.n.66834] 3.9 16:18:27 10° N 16:18:57 12° NNE 16:18:57 12° NNE
[s.n.66833] 3.9 16:18:52 10° N 16:19:22 12° NNE 16:19:22 12° NNE
[s.n.66832] 3.9 16:19:24 10° N 16:19:54 12° NNE 16:19:54 12° NNE
[s.n.66831] 3.9 16:19:48 10° N 16:20:20 12° NNE 16:20:20 12° NNE
[s.n.66830] 3.9 16:20:14 10° N 16:20:45 12° NNE 16:20:45 12° NNE
[s.n.66828] 3.9 16:20:39 10° N 16:21:11 12° NNE 16:21:11 12° NNE
[s.n.66829] 3.9 16:21:10 10° N 16:21:42 12° NNE 16:21:42 12° NNE
Radarsat 4.5 16:18:16 10° SSE 16:23:27 82° ENE 16:28:40 10° NNW
[s.n.66827] 3.9 16:21:41 10° N 16:22:12 12° NNE 16:22:12 12° NNE
Cosmos 1606 Rocket 3.8 16:19:32 10° SSE 16:23:45 47° E 16:28:01 10° NNE
[s.n.66826] 3.9 16:22:10 10° N 16:22:43 13° NNE 16:22:43 13° NNE
[s.n.66825] 3.9 16:22:36 10° N 16:23:08 13° NNE 16:23:08 13° NNE
[s.n.66824] 3.9 16:23:07 10° N 16:23:40 13° NNE 16:23:40 13° NNE
[s.n.66823] 3.9 16:23:37 10° N 16:24:10 13° NNE 16:24:10 13° NNE
ATLAS CENTAUR R/B 3.9 16:23:38 10° WNW 16:25:57 18° WSW 16:28:13 10° SSW
[s.n.66822] 3.8 16:24:06 10° N 16:24:39 13° NNE 16:24:39 13° NNE
[s.n.66821] 3.8 16:24:33 10° N 16:25:07 13° NNE 16:25:07 13° NNE
Thor Agena Rocket 3.9 16:21:49 10° S 16:27:01 72° WSW 16:32:11 10° NNW
Cosmos 1503 Rocket 3.9 16:23:10 10° SSW 16:28:24 79° ESE 16:33:37 10° NNE
Cosmos 2219 3.7 16:24:13 10° NNW 16:29:33 37° NE 16:34:51 10° ESE
CENTAUR R/B 3.6 16:24:56 10° W 16:30:40 38° NNW 16:36:56 13° NE
SL-16 R/B 3.0 16:26:50 10° NNE 16:32:59 63° WNW 16:39:05 10° SSW
Cosmos 1544 Rocket 4.5 16:28:47 10° SSW 16:33:03 49° WNW 16:37:23 10° N
USA 290 4.3 16:30:21 10° NW 16:33:17 31° WSW 16:36:12 10° S
GEOS 3 Rocket 3.7 16:28:50 15° NE 16:33:20 76° SE 16:38:42 10° SW
AQUARIUS 4.0 16:29:36 10° SSE 16:33:58 68° ENE 16:38:23 10° N
Cosmos 1980 Rocket 3.0 16:30:27 10° SSE 16:35:19 31° ESE 16:37:57 21° ENE
NOSS 2-3 (C) 4.2 16:33:09 10° S 16:36:06 26° ESE 16:36:50 24° E
Lacrosse 5 rocket 2.4 16:32:53 10° WNW 16:36:08 27° N 16:37:41 20° NNE
Resurs 1-3 4.3 16:32:34 10° SE 16:36:17 29° ENE 16:40:01 10° N
Cosmos 1844 Rocket 4.0 16:32:30 10° N 16:36:28 19° NE 16:37:19 18° NE
Cosmos 1354 Rocket 4.0 16:32:48 10° SSW 16:38:01 68° ESE 16:42:34 14° NNE
Meteor 1-25 Rocket 4.3 16:33:22 10° NNW 16:39:14 89° W 16:45:00 10° S
Meteor 1-5 Rocket 4.1 16:34:01 10° N 16:39:20 63° ENE 16:44:45 10° SSE
Lacrosse 4 Rocket 3.8 16:38:40 10° WNW 16:40:47 14° NNW 16:42:54 10° N
BREEZE M DEB (TANK) 2.4 16:38:48 10° SW 16:40:59 36° SSE 16:41:17 33° SE
Cosmos 1777 Rocket 4.3 16:39:25 10° SSW 16:44:39 69° WNW 16:49:53 10° NNE
Cosmos 2263 Rocket 2.2 16:39:02 10° NNW 16:44:41 61° ENE 16:50:18 10° SE
Spot 4 Rocket 4.3 16:40:05 10° SE 16:44:52 42° ENE 16:49:41 10° N
Cosmos 1726 Rocket 3.6 16:43:05 10° S 16:47:40 61° E 16:51:54 12° NNE
CZ-2D R/B 3.1 16:44:53 10° S 16:47:59 65° WSW 16:51:07 10° NNW
Cosmos 1898 Rocket 4.3 16:44:59 10° SSE 16:49:17 27° E 16:49:57 26° E
USA 238 DEB 3.9 16:44:58 10° S 16:50:38 42° ESE 16:53:47 26° ENE
USA 238 4.0 16:45:06 10° S 16:50:45 41° ESE 16:53:52 26° ENE
Okean 1-7 Rocket 4.1 16:46:49 10° NNW 16:51:10 61° W 16:55:26 10° S
Cosmos 1461 3.2 16:52:41 10° SW 16:56:32 55° NW 16:58:30 26° NNE
USA 215 3.7 16:53:49 24° ENE 16:57:29 48° N 17:03:43 10° WNW
Cosmos 1933 3.4 16:53:59 10° SSW 16:57:48 69° W 17:01:21 12° N
YAOGAN 1 2.6 16:55:52 10° SE 16:59:57 49° ENE 17:04:05 10° N
Cosmos 923 Rocket 4.5 16:55:22 10° N 17:00:11 36° NE 17:01:12 33° E
Cosmos-2242 3.5 16:56:32 10° SSE 17:00:12 36° E 17:00:12 36° E
SKYMED 2 3.7 16:58:49 30° NE 17:00:43 51° E 17:04:57 10° S
Cosmos 2227 Rocket 2.6 16:55:27 10° NNW 17:01:03 66° WSW 17:06:39 10° SSE
Cosmos 372 Rocket 4.3 16:57:08 10° S 17:01:57 42° ESE 17:03:17 35° ENE
BREEZE-M DEB (TANK) 4.0 16:59:15 10° SSW 17:02:11 20° SSE 17:02:20 20° SSE
NOSS 2-3 (E) 3.1 16:59:22 10° SSW 17:02:58 62° SE 17:03:38 50° ENE
NOSS 2-3 (D) 3.2 17:00:02 10° SSW 17:03:38 58° SE 17:04:14 50° E
Cosmos 1937 Rocket 4.4 17:03:43 10° SSE 17:07:23 28° ESE 17:07:23 28° ESE
NOAA 15 4.5 17:07:44 10° SSE 17:13:00 74° ENE 17:18:18 10° NNW
Cosmos 1655 Rocket 4.0 17:06:53 10° N 17:13:10 82° W 17:19:22 10° S
Meteor 2-10 4.0 17:09:01 10° N 17:14:24 77° ENE 17:19:57 10° SSE
Cosmos 1697 Rocket 2.9 17:09:55 10° SW 17:15:30 71° WNW 17:19:15 22° NNE
CZ-4 R/B 4.4 17:11:36 10° S 17:15:32 76° WSW 17:19:29 10° NNW
Cosmos 990 Rocket 4.1 17:10:36 10° SSW 17:15:42 72° WNW 17:19:09 21° NNE
MOS 1 Rocket 4.2 17:12:05 10° S 17:16:55 55° W 17:22:02 10° NNW
Cosmos 1953 Rocket 3.7 17:12:31 10° NNW 17:16:58 76° W 17:21:24 10° S
Aureole 1 Rocket 3.3 17:13:30 10° S 17:17:55 62° ESE 17:19:37 40° NE
ARIANE 5 R/B 4.1 17:19:43 10° SSW 17:24:22 36° W 17:29:07 10° NNW
Resurs 01 Rocket 4.1 17:29:45 10° N 17:29:45 10° N 17:29:50 10° N
NOAA 6 3.8 17:26:33 10° SSE 17:31:37 71° ENE 17:36:43 10° N
COSMOS 2455 4.2 17:26:43 10° SSE 17:29:38 23° SE 17:29:38 23° SE
Cosmos 1680 Rocket 4.0 17:27:41 10° NNW 17:31:45 42° NNE 17:31:45 42° NNE
USA 81 4.1 17:28:42 10° N 17:33:59 77° W 17:39:14 10° S
CZ-2D R/B 3.9 17:31:24 10° S 17:35:33 62° WSW 17:39:41 10° NNW
IRAS Rocket 4.1 17:32:29 10° SSE 17:37:59 88° WSW 17:43:29 10° NNW
Meteor 2-2 Rocket 4.1 17:34:04 10° S 17:39:42 78° E 17:41:51 39° NNE
Gbstr 26 Del rocket 3.1 17:36:19 10° WSW 17:39:37 60° WSW 17:39:37 60° WSW
NOSS 3-2 (C) 4.0 17:35:42 10° WSW 17:40:47 45° NNW 17:43:16 30° NNE
SPOT 1/Viking Rocket 4.3 17:36:12 10° S 17:41:16 53° W 17:46:23 10° NNW
PSLV R/B 3.5 17:43:06 71° WSW 17:43:11 71° WSW 17:47:15 10° NNW
SL-19 R/B 4.3 17:41:24 10° S 17:46:47 75° WSW 17:52:30 10° NNW
COSMO-SKYMED 1 3.0 17:49:12 52° SSW 17:49:12 52° SSW 17:52:22 10° SSW
Cosmos 2082 3.6 17:42:40 10° NNW 17:48:25 86° WSW 17:50:41 39° SSE
Cosmos 2058 Rocket 3.4 17:45:43 10° SSW 17:50:10 66° WNW 17:50:45 59° NW
Meteor 2-11 Rocket 4.3 17:54:16 10° N 18:00:30 88° E 18:06:39 10° S
Meteor 1-26 Rocket 4.3 17:58:45 10° SSW 18:04:08 68° WNW 18:05:34 47° NNW
Cosmos 1553 Rocket 4.1 18:05:14 10° SSW 18:11:24 75° W 18:14:52 28° N
Cosmos 2219 4.1 18:08:21 10° NW 18:13:50 47° WSW 18:17:57 17° S
Lacrosse 5 rocket 3.9 18:10:39 10° NW 18:11:16 14° NW 18:11:16 14° NW
Cosmos 1980 Rocket 2.8 18:13:33 10° SW 18:19:03 52° NW 18:19:44 49° NNW
USA 281 4.4 18:22:44 27° N 18:22:44 27° N 18:26:01 10° NNW
Cosmos 1844 Rocket 3.7 18:15:43 10° NNW 18:18:59 36° NNW 18:18:59 36° NNW
CENTAUR R/B 4.1 18:17:25 10° NW 18:23:24 29° N 18:24:02 29° N
Cosmos 1745 Rocket 4.5 18:20:23 10° N 18:24:48 49° NNW 18:24:48 49° NNW
Cosmos 2263 Rocket 4.2 18:23:34 10° NW 18:28:11 26° WSW 18:32:47 10° SSW
Cosmos 1898 Rocket 4.4 18:26:01 10° SW 18:30:11 44° W 18:30:11 44° W
Cosmos 2369 4.3 18:26:13 10° SW 18:30:42 53° WSW 18:30:42 53° WSW
USA 215 3.5 18:41:10 59° NNW 18:41:10 59° NNW 18:46:34 10° WNW
USA 238 DEB 4.0 18:35:16 10° WSW 18:41:14 55° NW 18:41:14 55° NW
USA 238 4.0 18:35:22 10° WSW 18:41:19 55° NW 18:41:19 55° NW
